Location: Pedholt
(56.0260°N, 10.2097°E)
Time: 20:24:02
(UTC+00:00)

Tiros 1 - Pass Details

Date: 03 August 2021
Orbit: 630 x 663 km, 48.4° (Epoch: 19 September)

Event Time Altitude Azimuth Distance (km) Brightness Sun altitude
Rises 18:55:50 0° 249° (WSW) 2,982 11.2 2.4°
Reaches altitude 10° 18:58:21 10° 240° (WSW) 2,065 10.2 2.1°
Maximum altitude 19:02:36 33° 177° (S) 1,100 8.1 1.5°
Drops below altitude 10° 19:06:49 10° 114° (ESE) 2,047 9.1 1.0°
Sets 19:09:18 0° 105° (ESE) 2,952 9.9 0.7°
